QPF
0.00 0.00 0.00 0.00 0.00 0.00 0.00 0.00 0.00 0.00 0.00 0.00 0.00 0.00 0.00 0.00 0.00 0.03 0.02 0.00 0.00 0.03 0.04 0.02 0.00 0.01 0.00 0.00 0.00 0.00 0.00 0.00 0.00 0.00 0.01 0.00 0.00 0.02 0.03 0.01 0.00 0.00 0.00
0.00 0.00 0.00 0.00 0.00 0.00 0.00 0.00 0.00 0.00 0.00 0.00 0.00 0.00 0.00 0.00 0.01 0.01 0.01 0.04 0.01 0.09 0.14 0.15 0.13 0.12 0.03 0.00 0.00 0.00 0.00 0.00 0.00 0.00 0.00 0.00 0.00 0.00 0.01 0.00 0.00 0.00 0.00
0.00 0.00 0.00 0.00 0.00 0.00 0.00 0.00 0.00 0.00 0.00 0.00 0.00 0.00 0.00 0.00 0.00 0.00 0.01 0.15 0.11 0.09 0.11 0.19 0.44 0.25 0.11 0.01 0.00 0.00 0.00 0.00 0.00 0.00 0.00 0.00 0.00 0.00 0.00 0.00 0.00 0.00 0.00
0.00 0.00 0.00 0.00 0.00 0.00 0.00 0.00 0.00 0.00 0.00 0.00 0.00 0.00 0.00 0.00 0.00 0.00 0.00 0.08 0.11 0.04 0.07 0.33 0.14 0.24 0.31 0.07 0.02 0.00 0.00 0.00 0.00 0.00 0.00 0.00 0.00 0.00 0.00 0.00 0.00 0.00 0.00
0.00 0.00 0.00 0.00 0.00 0.00 0.00 0.00 0.00 0.00 0.00 0.00 0.00 0.00 0.00 0.00 0.00 0.00 0.02 0.08 0.10 0.06 0.06 0.08 0.09 0.18 0.26 0.13 0.01 0.00 0.00 0.00 0.00 0.00 0.00 0.01 0.00 0.00 0.00 0.00 0.00 0.00 0.00
0.00 0.02 0.01 0.00 0.01 0.01 0.01 0.01 0.00 0.00 0.00 0.00 0.00 0.00 0.00 0.00 0.00 0.01 0.07 0.09 0.11 0.09 0.18 0.08 0.01 0.09 0.24 0.15 0.05 0.00 0.00 0.00 0.00 0.00 0.00 0.00 0.00 0.00 0.00 0.00 0.00 0.00 0.00
0.24 0.26 0.21 0.20 0.02 0.06 0.10 0.07 0.02 0.05 0.06 0.02 0.00 0.03 0.02 0.01 0.02 0.01 0.02 0.06 0.05 0.07 0.05 0.03 0.02 0.05 0.08 0.13 0.05 0.00 0.00 0.00 0.00 0.00 0.00 0.00 0.00 0.00 0.00 0.00 0.00 0.00 0.00
0.64 0.35 0.15 0.09 0.01 0.01 0.10 0.25 0.32 0.36 0.25 0.11 0.09 0.08 0.14 0.07 0.07 0.06 0.16 0.17 0.09 0.20 0.18 0.09 0.17 0.21 0.16 0.11 0.04 0.00 0.00 0.00 0.00 0.00 0.00 0.00 0.00 0.00 0.00 0.00 0.00 0.00 0.00
0.04 0.04 0.01 0.02 0.00 0.01 0.08 0.13 0.15 0.14 0.14 0.10 0.12 0.06 0.06 0.04 0.09 0.04 0.07 0.08 0.08 0.16 0.24 0.08 0.08 0.18 0.26 0.14 0.02 0.00 0.00 0.00 0.00 0.00 0.00 0.00 0.00 0.00 0.00 0.00 0.00 0.00 0.00
0.00 0.00 0.00 0.00 0.00 0.00 0.00 0.01 0.03 0.04 0.07 0.05 0.02 0.00 0.00 0.02 0.07 0.06 0.10 0.08 0.08 0.06 0.03 0.04 0.07 0.12 0.07 0.02 0.00 0.00 0.00 0.00 0.00 0.00 0.00 0.00 0.00 0.00 0.00 0.00 0.00 0.00 0.00
0.00 0.00 0.00 0.00 0.00 0.00 0.00 0.00 0.00 0.00 0.00 0.00 0.00 0.00 0.00 0.00 0.00 0.02 0.06 0.05 0.07 0.05 0.02 0.04 0.08 0.06 0.01 0.00 0.00 0.00 0.00 0.00 0.00 0.00 0.00 0.00 0.00 0.00 0.00 0.00 0.00 0.00 0.00
0.00 0.00 0.00 0.00 0.00 0.00 0.00 0.00 0.00 0.00 0.00 0.00 0.00 0.00 0.00 0.00 0.00 0.00 0.00 0.00 0.00 0.01 0.07 0.10 0.03 0.01 0.00 0.00 0.00 0.00 0.00 0.00 0.00 0.00 0.00 0.00 0.00 0.00 0.00 0.00 0.00 0.00 0.00
0.00 0.00 0.00 0.00 0.00 0.00 0.00 0.00 0.00 0.00 0.00 0.00 0.00 0.00 0.00 0.00 0.00 0.02 0.03 0.04 0.05 0.09 0.09 0.05 0.01 0.00 0.00 0.00 0.00 0.00 0.00 0.00 0.00 0.00 0.00 0.00 0.00 0.00 0.00 0.00 0.00 0.00 0.00
0.00 0.00 0.00 0.00 0.00 0.00 0.00 0.00 0.00 0.01 0.00 0.00 0.01 0.03 0.03 0.04 0.11 0.14 0.13 0.13 0.11 0.08 0.05 0.03 0.00 0.00 0.00 0.00 0.00 0.00 0.00 0.00 0.01 0.01 0.00 0.00 0.00 0.00 0.00 0.00 0.00 0.00 0.00
0.00 0.00 0.00 0.00 0.00 0.00 0.00 0.00 0.02 0.04 0.03 0.00 0.03 0.03 0.03 0.03 0.06 0.08 0.05 0.04 0.00 0.00 0.00 0.01 0.00 0.01 0.01 0.01 0.02 0.01 0.01 0.02 0.03 0.02 0.00 0.00 0.00 0.00 0.00 0.00 0.00 0.00 0.00
0.00 0.00 0.00 0.00 0.00 0.02 0.01 0.02 0.09 0.08 0.06 0.04 0.01 0.01 0.00 0.00 0.01 0.01 0.01 0.01 0.01 0.01 0.00 0.00 0.00 0.01 0.02 0.07 0.08 0.03 0.02 0.03 0.03 0.01 0.00 0.00 0.00 0.00 0.00 0.00 0.00 0.00 0.00
0.00 0.00 0.00 0.00 0.00 0.00 0.00 0.02 0.08 0.08 0.08 0.04 0.03 0.06 0.01 0.00 0.00 0.01 0.01 0.01 0.02 0.02 0.01 0.01 0.00 0.00 0.00 0.01 0.05 0.05 0.05 0.05 0.03 0.02 0.00 0.00 0.00 0.00 0.00 0.00 0.00 0.00 0.00
0.00 0.00 0.00 0.00 0.00 0.00 0.00 0.00 0.02 0.01 0.01 0.02 0.01 0.00 0.00 0.00 0.00 0.00 0.01 0.01 0.01 0.01 0.00 0.00 0.00 0.00 0.00 0.00 0.01 0.03 0.07 0.04 0.03 0.06 0.05 0.03 0.02 0.00 0.00 0.00 0.00 0.00 0.00
0.00 0.00 0.01 0.00 0.00 0.00 0.00 0.00 0.00 0.00 0.00 0.01 0.00 0.00 0.01 0.01 0.00 0.00 0.00 0.00 0.00 0.00 0.00 0.00 0.00 0.00 0.00 0.00 0.00 0.01 0.03 0.04 0.03 0.03 0.01 0.00 0.00 0.00 0.00 0.00 0.00 0.00 0.00
0.00 0.01 0.02 0.00 0.00 0.01 0.01 0.00 0.00 0.00 0.00 0.00 0.00 0.00 0.00 0.00 0.00 0.00 0.00 0.00 0.00 0.00 0.00 0.00 0.00 0.00 0.00 0.00 0.00 0.00 0.00 0.00 0.00 0.00 0.00 0.00 0.00 0.00 0.01 0.01 0.00 0.00 0.00
0.01 0.00 0.00 0.00 0.00 0.01 0.00 0.00 0.00 0.00 0.00 0.00 0.00 0.00 0.01 0.00 0.01 0.00 0.00 0.00 0.00 0.00 0.00 0.00 0.00 0.00 0.00 0.00 0.00 0.01 0.00 0.00 0.01 0.00 0.00 0.00 0.01 0.03 0.02 0.00 0.00 0.00 0.00
0.01 0.00 0.00 0.00 0.00 0.00 0.00 0.00 0.00 0.00 0.00 0.00 0.00 0.02 0.04 0.02 0.00 0.00 0.00 0.00 0.00 0.00 0.00 0.00 0.00 0.00 0.00 0.00 0.00 0.00 0.00 0.00 0.01 0.02 0.02 0.03 0.04 0.02 0.00 0.00 0.00 0.00 0.00
0.00 0.00 0.00 0.00 0.00 0.00 0.00 0.00 0.00 0.00 0.01 0.01 0.00 0.02 0.02 0.01 0.00 0.00 0.00 0.00 0.00 0.00 0.00 0.00 0.00 0.00 0.00 0.00 0.00 0.02 0.03 0.01 0.00 0.01 0.01 0.01 0.00 0.00 0.00 0.00 0.00 0.00 0.00
0.00 0.00 0.00 0.00 0.00 0.00 0.00 0.00 0.00 0.01 0.03 0.04 0.01 0.01 0.00 0.00 0.00 0.00 0.00 0.00 0.00 0.00 0.00 0.00 0.00 0.00 0.00 0.01 0.03 0.00 0.00 0.00 0.00 0.00 0.00 0.00 0.00 0.00 0.00 0.00 0.00 0.00 0.00
0.00 0.00 0.00 0.00 0.00 0.00 0.01 0.02 0.01 0.03 0.01 0.01 0.02 0.03 0.05 0.01 0.00 0.00 0.00 0.00 0.00 0.00 0.00 0.00 0.00 0.00 0.00 0.00 0.00 0.00 0.00 0.00 0.00 0.00 0.00 0.00 0.00 0.00 0.00 0.00 0.00 0.00 0.00
0.00 0.00 0.00 0.01 0.02 0.01 0.00 0.00 0.01 0.04 0.03 0.00 0.00 0.02 0.05 0.03 0.02 0.00 0.00 0.00 0.00 0.00 0.00 0.00 0.00 0.00 0.00 0.00 0.00 0.00 0.00 0.00 0.00 0.00 0.00 0.00 0.00 0.00 0.00 0.00 0.00 0.00 0.00
MSLP
1013.49 1013.75 1014.21 1014.46 1014.81 1015.16 1015.47 1015.51 1015.58 1015.63 1015.85 1016.10 1016.19 1016.39 1016.52 1016.68 1017.11 1017.66 1017.86 1018.01 1018.22 1018.33 1019.20 1019.89 1020.30 1020.61 1020.63 1020.05 1019.76 1019.56 1019.64 1019.80 1020.24 1020.41 1020.58 1020.69 1020.89 1021.03 1021.08 1021.50 1021.75 1021.73 1021.89
1012.82 1013.54 1013.99 1014.26 1014.42 1014.67 1014.99 1015.07 1015.23 1015.45 1015.71 1015.75 1015.70 1015.78 1015.91 1016.19 1016.56 1016.95 1017.39 1017.79 1018.12 1018.39 1019.45 1019.37 1019.74 1019.64 1020.89 1020.40 1020.22 1019.88 1019.91 1019.63 1020.01 1020.47 1020.87 1021.14 1021.20 1021.22 1021.38 1021.74 1021.78 1021.83 1022.02
1012.41 1012.93 1013.45 1013.86 1014.18 1014.18 1014.09 1014.13 1014.38 1014.87 1015.25 1015.47 1015.52 1015.51 1015.61 1015.88 1016.08 1016.35 1016.83 1017.41 1017.38 1017.69 1018.38 1018.48 1018.41 1018.61 1019.99 1020.31 1019.99 1019.83 1020.00 1020.03 1020.10 1020.48 1021.01 1021.20 1021.25 1021.46 1021.79 1021.88 1022.06 1022.11 1022.02
1012.15 1012.88 1013.40 1013.79 1013.96 1014.04 1014.10 1014.16 1014.31 1014.43 1014.51 1014.73 1014.85 1014.96 1015.13 1015.44 1015.71 1015.94 1016.31 1016.50 1016.71 1016.97 1017.54 1017.57 1017.79 1018.65 1018.96 1019.62 1019.93 1019.44 1019.71 1020.11 1020.28 1020.44 1020.92 1021.27 1021.48 1021.66 1021.71 1022.15 1022.28 1022.21 1022.10
1012.82 1013.32 1013.13 1013.06 1013.53 1013.87 1013.96 1013.96 1013.94 1014.09 1014.19 1014.20 1014.14 1014.28 1014.37 1014.17 1014.37 1014.93 1015.28 1015.53 1016.00 1016.27 1016.48 1017.14 1017.42 1017.61 1018.20 1018.83 1019.56 1019.36 1019.48 1019.74 1020.23 1020.42 1021.00 1021.32 1021.63 1021.94 1022.03 1022.17 1022.62 1022.77 1022.42
1013.18 1013.09 1013.19 1013.02 1012.99 1013.48 1013.82 1013.75 1013.87 1013.90 1013.80 1013.99 1014.09 1014.16 1014.32 1014.29 1013.92 1013.97 1014.33 1014.57 1014.87 1015.28 1015.63 1015.90 1016.55 1016.41 1017.27 1018.42 1019.22 1019.03 1018.76 1019.11 1019.50 1019.92 1020.48 1020.88 1021.01 1021.09 1021.36 1021.74 1022.32 1022.81 1022.90
1012.47 1012.85 1013.64 1014.58 1014.02 1013.57 1013.59 1013.93 1013.44 1013.25 1013.25 1013.51 1013.71 1013.55 1013.68 1013.57 1013.65 1013.66 1013.78 1014.23 1014.64 1014.83 1014.97 1015.27 1015.32 1016.05 1016.32 1017.78 1018.62 1018.87 1018.81 1018.74 1018.55 1018.97 1019.84 1020.21 1020.47 1020.56 1020.94 1021.65 1022.18 1022.53 1022.74
1012.07 1011.56 1012.71 1014.05 1015.40 1013.94 1013.45 1013.34 1013.58 1012.98 1012.99 1013.34 1012.95 1012.68 1012.78 1012.97 1013.04 1013.07 1012.92 1013.44 1014.03 1014.25 1013.96 1013.72 1013.65 1012.99 1014.53 1016.30 1017.87 1018.65 1018.99 1018.81 1018.72 1018.71 1018.94 1019.25 1019.46 1019.78 1020.10 1020.61 1021.36 1022.34 1022.40
1012.82 1012.61 1013.03 1013.94 1014.17 1013.60 1013.28 1014.15 1013.87 1013.66 1013.43 1013.09 1013.66 1013.01 1012.71 1012.59 1012.43 1012.32 1012.38 1012.85 1013.14 1013.15 1013.48 1014.00 1014.27 1013.88 1014.28 1015.60 1015.99 1018.11 1018.72 1018.61 1018.57 1018.48 1018.62 1018.92 1019.15 1019.59 1020.21 1020.84 1021.86 1022.50 1022.90
1013.56 1013.42 1013.68 1014.13 1014.01 1013.72 1014.18 1014.25 1013.95 1013.77 1013.78 1013.80 1014.07 1013.94 1013.79 1013.58 1013.52 1013.54 1013.40 1013.02 1013.23 1013.65 1013.76 1013.79 1014.19 1014.05 1014.25 1015.46 1015.68 1017.22 1018.19 1018.35 1018.58 1018.70 1018.84 1019.17 1019.46 1019.75 1019.99 1020.44 1021.28 1022.05 1022.39
1013.48 1013.60 1013.77 1013.87 1013.83 1013.57 1013.58 1013.67 1013.40 1013.45 1013.63 1013.72 1013.90 1013.84 1013.72 1013.74 1013.55 1013.52 1013.34 1013.25 1013.51 1013.75 1013.76 1013.80 1013.84 1014.12 1014.59 1015.26 1015.78 1016.73 1017.32 1017.90 1018.38 1018.60 1019.07 1019.50 1019.92 1020.08 1020.16 1020.48 1020.88 1021.19 1021.74
1013.57 1013.75 1013.61 1013.27 1013.14 1013.13 1013.20 1013.06 1013.21 1013.47 1013.61 1013.48 1013.75 1013.79 1013.42 1013.10 1012.85 1013.04 1013.03 1013.14 1013.33 1013.76 1013.67 1013.71 1013.97 1014.12 1014.91 1014.97 1015.46 1016.08 1016.97 1017.51 1018.30 1018.78 1019.36 1019.79 1019.85 1020.15 1020.24 1020.37 1020.50 1020.60 1020.88
1013.32 1013.31 1013.21 1013.00 1012.98 1013.00 1013.17 1013.17 1013.52 1013.66 1013.55 1013.48 1013.53 1013.49 1013.31 1012.94 1012.61 1012.78 1012.91 1013.21 1013.32 1013.76 1013.61 1013.91 1014.05 1014.01 1014.46 1015.11 1015.55 1016.20 1017.08 1017.63 1018.35 1018.92 1019.23 1019.40 1019.48 1019.49 1019.73 1019.96 1020.16 1020.59 1020.54
1012.82 1012.79 1012.82 1012.70 1012.51 1012.41 1012.60 1012.83 1012.93 1013.12 1013.23 1013.19 1012.94 1012.70 1012.66 1012.66 1012.56 1012.81 1013.07 1013.23 1013.43 1013.69 1013.87 1014.01 1013.94 1014.31 1014.99 1014.94 1015.65 1016.44 1017.16 1017.59 1017.97 1018.29 1018.58 1018.73 1018.91 1019.18 1019.41 1019.77 1020.27 1020.55 1020.60
1012.73 1012.85 1012.65 1012.50 1012.39 1012.65 1013.03 1012.94 1012.88 1012.95 1012.84 1012.75 1012.59 1012.37 1012.51 1012.52 1012.55 1012.91 1013.15 1013.38 1013.54 1013.78 1014.15 1014.13 1014.30 1014.80 1015.20 1015.64 1016.05 1016.19 1016.89 1017.40 1017.89 1018.17 1018.41 1018.59 1018.67 1018.79 1019.12 1019.49 1019.97 1020.30 1020.60
1012.57 1012.76 1012.66 1012.47 1012.46 1012.43 1012.63 1012.70 1012.40 1012.63 1013.36 1012.79 1012.37 1012.53 1012.66 1012.83 1012.52 1012.67 1013.30 1013.60 1013.76 1013.92 1014.13 1014.36 1014.48 1014.79 1015.07 1015.56 1016.02 1016.34 1016.83 1017.19 1017.56 1017.77 1018.39 1018.57 1018.54 1018.87 1019.08 1019.44 1019.87 1020.00 1020.53
1012.34 1012.31 1012.35 1012.77 1012.86 1012.84 1012.49 1012.35 1012.38 1012.64 1012.96 1012.87 1012.58 1012.83 1013.02 1013.08 1012.85 1013.09 1013.54 1013.71 1013.84 1014.07 1014.14 1014.12 1014.29 1014.54 1014.62 1015.20 1015.64 1016.09 1016.65 1017.11 1017.64 1017.99 1018.00 1018.52 1018.56 1018.79 1019.50 1019.38 1019.61 1020.24 1020.74
1012.04 1012.01 1012.34 1012.58 1012.56 1012.34 1011.99 1011.76 1012.05 1012.11 1012.15 1012.31 1012.95 1012.97 1013.22 1012.90 1013.02 1013.18 1013.36 1013.80 1014.07 1014.36 1014.12 1013.95 1014.11 1014.19 1014.48 1015.07 1015.30 1015.72 1016.48 1017.05 1017.45 1017.92 1018.28 1018.49 1018.94 1019.18 1019.40 1019.58 1019.74 1020.28 1020.83
1011.89 1012.12 1012.31 1012.59 1012.70 1012.27 1011.78 1011.79 1012.03 1012.16 1012.04 1012.21 1012.47 1012.25 1012.94 1013.29 1013.04 1013.29 1013.57 1013.45 1013.45 1013.63 1013.65 1013.71 1013.83 1014.05 1014.43 1014.50 1015.00 1015.58 1016.07 1016.64 1017.16 1017.89 1018.20 1018.47 1018.88 1019.39 1019.41 1019.57 1020.06 1020.46 1020.92
1012.13 1012.21 1012.15 1012.19 1012.21 1011.97 1011.89 1011.98 1011.99 1012.01 1011.89 1011.98 1012.15 1012.26 1012.49 1012.60 1012.90 1013.27 1013.46 1013.48 1013.41 1013.49 1013.46 1013.57 1013.70 1013.98 1014.35 1014.51 1014.88 1015.40 1015.91 1016.48 1016.97 1017.47 1017.87 1018.54 1018.97 1019.23 1019.34 1019.81 1020.27 1020.56 1020.91
1012.13 1012.02 1011.90 1012.06 1011.96 1011.72 1011.75 1011.90 1011.90 1011.85 1011.79 1011.96 1011.94 1011.74 1011.79 1012.28 1012.68 1013.08 1013.43 1013.25 1013.18 1013.27 1013.37 1013.51 1013.73 1014.04 1014.33 1014.58 1014.93 1015.40 1015.91 1016.55 1016.94 1017.28 1017.82 1018.62 1018.82 1019.26 1019.67 1020.01 1020.17 1020.56 1020.90
1011.95 1011.90 1011.96 1012.08 1011.94 1011.94 1012.08 1011.96 1011.64 1011.78 1011.83 1011.76 1011.87 1011.96 1012.33 1012.38 1012.56 1012.71 1012.84 1012.93 1013.09 1013.14 1013.34 1013.41 1013.71 1014.02 1014.29 1014.67 1014.98 1015.50 1015.96 1016.50 1016.83 1017.41 1018.06 1018.30 1018.69 1019.24 1019.73 1020.14 1020.30 1020.53 1021.04
1011.59 1011.70 1011.89 1012.02 1012.08 1012.00 1012.05 1012.00 1011.77 1011.91 1011.81 1011.67 1011.82 1011.94 1012.14 1012.21 1012.35 1012.53 1012.78 1012.88 1013.09 1013.20 1013.22 1013.36 1013.78 1014.07 1014.36 1014.65 1014.85 1015.13 1015.70 1016.23 1016.49 1017.12 1017.73 1018.12 1018.73 1019.23 1019.49 1019.86 1020.21 1020.69 1021.07
1011.71 1011.85 1012.08 1012.12 1012.06 1012.02 1011.86 1011.74 1011.78 1011.60 1011.44 1011.50 1011.68 1011.78 1011.89 1012.05 1012.24 1012.38 1012.52 1012.79 1013.00 1013.14 1013.05 1013.26 1013.53 1013.81 1014.17 1014.63 1015.02 1015.27 1015.63 1016.16 1016.60 1016.71 1017.35 1017.98 1018.55 1018.94 1019.40 1019.76 1020.21 1020.63 1020.98
1011.64 1011.93 1012.12 1012.17 1012.12 1012.01 1011.98 1011.91 1011.69 1011.50 1011.25 1011.16 1011.13 1011.42 1011.54 1011.76 1011.94 1012.11 1012.40 1012.68 1012.82 1013.05 1013.36 1013.50 1013.66 1013.92 1014.21 1014.52 1014.99 1015.60 1015.97 1016.19 1016.49 1016.77 1017.30 1017.69 1018.30 1018.78 1019.30 1019.71 1020.29 1020.79 1021.19
1011.62 1011.64 1011.87 1012.01 1012.10 1012.05 1012.00 1011.99 1012.10 1011.90 1011.57 1011.23 1011.06 1011.12 1011.27 1011.34 1011.66 1011.99 1012.30 1012.62 1013.06 1013.38 1013.62 1013.84 1013.93 1014.09 1014.40 1014.79 1015.17 1015.58 1015.99 1016.15 1016.43 1016.69 1017.03 1017.60 1018.16 1018.84 1019.39 1019.77 1020.31 1020.80 1021.10
Thickness
5813 5813 5810 5809 5807 5805 5803 5803 5803 5805 5803 5800 5798 5797 5797 5796 5792 5785 5784 5783 5779 5777 5767 5757 5752 5747 5744 5745 5746 5745 5740 5734 5724 5723 5725 5726 5724 5721 5718 5713 5708 5707 5705
5814 5809 5807 5807 5808 5807 5804 5804 5803 5801 5801 5801 5802 5803 5804 5800 5796 5791 5785 5783 5778 5772 5761 5759 5752 5751 5740 5742 5739 5740 5737 5738 5731 5725 5722 5718 5717 5714 5711 5707 5704 5700 5697
5815 5811 5807 5805 5804 5807 5810 5813 5810 5804 5801 5800 5800 5800 5801 5798 5798 5796 5789 5784 5783 5777 5767 5764 5765 5753 5741 5739 5739 5738 5734 5732 5729 5725 5720 5715 5712 5709 5703 5700 5695 5693 5691
5816 5810 5806 5803 5802 5803 5805 5807 5807 5806 5806 5805 5805 5805 5803 5799 5795 5792 5788 5788 5786 5782 5774 5770 5766 5754 5742 5737 5736 5739 5734 5729 5725 5722 5718 5712 5706 5702 5700 5693 5690 5689 5686
5804 5800 5804 5807 5803 5801 5801 5801 5800 5800 5800 5803 5806 5804 5804 5809 5805 5795 5793 5793 5787 5785 5782 5774 5770 5765 5751 5743 5735 5736 5734 5729 5722 5718 5712 5707 5703 5696 5693 5691 5682 5677 5679
5797 5799 5799 5800 5802 5799 5795 5796 5797 5793 5794 5793 5797 5797 5796 5796 5800 5801 5797 5794 5792 5789 5785 5780 5774 5772 5759 5745 5737 5735 5736 5729 5724 5718 5712 5708 5704 5702 5697 5693 5684 5676 5670
5798 5796 5783 5770 5775 5786 5790 5786 5791 5790 5790 5787 5789 5793 5793 5795 5795 5793 5793 5788 5786 5786 5783 5779 5774 5764 5758 5747 5738 5732 5731 5729 5729 5721 5710 5706 5702 5700 5693 5684 5676 5669 5664
5792 5798 5787 5766 5752 5776 5785 5783 5779 5777 5776 5775 5784 5790 5791 5790 5790 5790 5791 5786 5781 5779 5780 5783 5781 5779 5761 5749 5735 5727 5720 5721 5720 5718 5712 5708 5705 5699 5694 5687 5678 5666 5663
5782 5783 5778 5769 5763 5770 5773 5766 5769 5771 5770 5773 5768 5776 5780 5781 5784 5785 5785 5782 5778 5778 5775 5769 5765 5765 5757 5748 5743 5725 5715 5714 5712 5712 5708 5704 5701 5693 5685 5678 5667 5660 5654
5762 5765 5763 5757 5757 5758 5757 5759 5762 5763 5759 5760 5757 5760 5761 5764 5765 5766 5768 5772 5770 5766 5765 5763 5754 5752 5746 5739 5739 5724 5710 5708 5704 5702 5700 5695 5691 5685 5680 5675 5665 5655 5649
5754 5753 5751 5750 5750 5754 5755 5756 5760 5758 5756 5756 5753 5753 5754 5754 5755 5757 5761 5761 5757 5755 5754 5754 5751 5745 5739 5735 5729 5719 5711 5703 5699 5696 5690 5685 5680 5677 5673 5668 5662 5656 5644
5742 5741 5742 5746 5748 5748 5747 5748 5748 5747 5745 5747 5743 5742 5748 5750 5753 5750 5752 5751 5749 5744 5744 5744 5741 5736 5729 5727 5725 5720 5710 5703 5693 5687 5681 5675 5674 5668 5665 5662 5658 5653 5647
5736 5736 5737 5739 5739 5738 5735 5735 5734 5734 5736 5736 5735 5735 5736 5741 5745 5742 5741 5739 5737 5733 5735 5733 5732 5731 5724 5720 5718 5711 5701 5694 5685 5678 5673 5670 5669 5667 5662 5657 5652 5646 5643
5735 5735 5733 5733 5732 5732 5729 5728 5730 5730 5730 5729 5732 5735 5735 5734 5735 5734 5732 5731 5728 5725 5724 5724 5725 5721 5717 5720 5712 5702 5693 5687 5681 5676 5672 5670 5667 5663 5658 5653 5645 5639 5636
5732 5728 5728 5729 5728 5724 5719 5719 5722 5721 5725 5728 5730 5734 5729 5728 5729 5726 5724 5723 5722 5720 5717 5718 5716 5712 5709 5705 5699 5696 5687 5681 5674 5671 5667 5665 5662 5660 5655 5650 5643 5635 5630
5726 5724 5723 5723 5721 5720 5718 5717 5717 5717 5712 5717 5721 5722 5722 5718 5722 5721 5715 5714 5712 5712 5712 5709 5709 5706 5703 5697 5690 5686 5679 5675 5671 5666 5660 5657 5657 5653 5649 5642 5636 5633 5625
5726 5726 5722 5713 5711 5709 5710 5712 5712 5710 5707 5708 5711 5710 5707 5708 5714 5712 5708 5707 5706 5705 5705 5705 5703 5699 5699 5691 5685 5681 5674 5668 5662 5658 5656 5652 5651 5646 5639 5636 5633 5625 5617
5729 5726 5721 5713 5705 5704 5708 5713 5711 5710 5708 5709 5699 5700 5699 5704 5705 5706 5704 5701 5700 5696 5698 5700 5698 5697 5691 5684 5681 5677 5669 5662 5658 5651 5649 5645 5639 5638 5632 5628 5626 5618 5609
5732 5725 5721 5715 5710 5709 5712 5712 5710 5704 5704 5704 5702 5704 5698 5697 5702 5702 5700 5704 5704 5701 5699 5697 5694 5690 5685 5684 5678 5671 5665 5659 5652 5646 5643 5640 5634 5628 5626 5623 5617 5610 5602
5728 5724 5721 5719 5715 5712 5711 5711 5708 5706 5705 5704 5703 5704 5704 5705 5703 5700 5698 5698 5698 5697 5694 5692 5690 5686 5680 5677 5672 5666 5660 5653 5648 5643 5639 5634 5627 5624 5622 5616 5609 5603 5598
5727 5725 5723 5719 5716 5714 5713 5710 5707 5706 5706 5705 5706 5709 5709 5707 5704 5699 5694 5695 5696 5694 5691 5687 5683 5679 5674 5670 5665 5660 5655 5647 5643 5640 5635 5627 5623 5618 5614 5607 5605 5599 5596
5726 5724 5721 5718 5716 5713 5711 5710 5710 5707 5707 5708 5707 5705 5700 5703 5702 5699 5696 5694 5693 5691 5686 5684 5679 5674 5669 5664 5659 5655 5650 5644 5640 5634 5628 5623 5618 5613 5607 5602 5599 5598 5593
5727 5724 5720 5717 5714 5712 5710 5707 5708 5707 5706 5708 5707 5705 5701 5701 5701 5698 5694 5692 5689 5686 5684 5681 5675 5669 5663 5659 5656 5653 5646 5638 5635 5628 5623 5620 5614 5607 5603 5600 5598 5594 5592
5722 5719 5716 5715 5714 5712 5712 5710 5708 5708 5709 5708 5705 5704 5701 5699 5697 5695 5693 5689 5686 5683 5681 5677 5672 5667 5660 5655 5650 5646 5642 5636 5630 5627 5622 5618 5610 5605 5600 5598 5595 5593 5590
5720 5716 5713 5711 5712 5711 5709 5709 5710 5709 5709 5707 5705 5701 5699 5696 5694 5692 5688 5685 5683 5680 5675 5671 5668 5663 5657 5651 5646 5639 5636 5633 5628 5625 5621 5616 5609 5604 5600 5597 5592 5589 5586
5718 5716 5713 5709 5707 5708 5706 5704 5702 5702 5703 5704 5704 5701 5697 5695 5693 5690 5685 5681 5676 5672 5669 5664 5661 5656 5651 5645 5640 5636 5632 5630 5626 5624 5619 5612 5607 5601 5597 5594 5590 5587 5583